Flag for Canada Weather past 2 weeks in Markham, Ontario, Canada

Now
7 °F

Passing clouds.


Feels Like: -10 °F
Forecast: 4 / 14 °F
Wind: 14 mph from Northwest

Location: Toronto Buttonville

Current Time: Mar 5, 2015 at 3:38:35 AM

Latest Report: Mar 5, 2015 at 3:00 AM


Visibility: 15 mi

Pressure: 30.23 "Hg

Humidity: 36%

Dew point: -15 °F

Location of MarkhamLocation

Historic Weather in Markham — Graph

°F

Markham temperature yesterday

Maximum temperature yesterday: 32 °F (at 12:00 AM)
Minimum temperature yesterday: 16 °F (at 11:00 PM)
Average temperature yesterday: 28 °F

Past Weeks' High & Low Weather Summary

 TemperatureHumidityPressure
High32 °F (Mar 4, 12:00 AM)100% (Mar 3, 5:00 PM)30.79 "Hg (Mar 3, 5:00 PM)
Low-11 °F (Feb 27, 6:00 AM)38% (Feb 19, 3:00 PM)29.58 "Hg (Mar 3, 8:00 PM)
Average10 °F66%30.18 "Hg
* Reported Feb 18 2:00 AM — Mar 5 2:00 AM, Markham, Weather by CustomWeather, © 2015

Note: Actual official high and low records may vary slightly from our data, if they occured in-between our weather recording intervals... More about our weather records

Advertising

Markham weather history for previous 24 hours

 ConditionsComfort  
Time TempWeatherWind HumidityBarometerVisibility
2:00 AM
Thu, Mar 5
10 °FPassing clouds.9 mph72%30.22 "Hg15 mi
1:00 AM10 °FPassing clouds.15 mph72%30.18 "Hg15 mi
12:00 AM12 °FPassing clouds.17 mph73%30.16 "Hg12 mi
11:00 PM
Wed, Mar 4
16 °FPassing clouds.21 mph73%30.11 "Hg12 mi
10:00 PM18 °FMostly cloudy.18 mph79%30.04 "Hg12 mi
9:00 PM19 °FOvercast.12 mph73%30.03 "Hg12 mi
8:00 PM23 °FPassing clouds.8 mph68%29.98 "Hg15 mi
7:00 PM25 °FOvercast.8 mph63%29.96 "Hg15 mi
5:00 PM28 °FMostly cloudy.10 mph59%29.91 "Hg15 mi
4:00 PM28 °FOvercast.13 mph59%29.91 "Hg15 mi
3:00 PM32 °FOvercast.10 mph55%29.89 "Hg12 mi
2:00 PM32 °FBroken clouds.12 mph55%29.89 "Hg12 mi
1:00 PM32 °FSnow flurries. Overcast.14 mph64%29.88 "Hg12 mi
12:00 PM32 °FPartly sunny.9 mph60%29.87 "Hg12 mi
11:00 AM32 °FPartly sunny.9 mph64%29.88 "Hg12 mi
10:00 AM30 °FPartly sunny.10 mph69%29.88 "Hg12 mi
9:00 AM28 °FPartly sunny.7 mph74%29.86 "Hg10 mi
8:00 AM27 °FMostly cloudy.6 mph80%29.84 "Hg12 mi
7:00 AM27 °FPartly sunny.6 mph74%29.80 "Hg15 mi
6:00 AM28 °FPassing clouds.9 mph69%29.80 "Hg15 mi
5:00 AM30 °FOvercast.14 mph69%29.78 "Hg15 mi
4:00 AM30 °FOvercast.12 mph80%29.73 "Hg12 mi
3:00 AM30 °FOvercast.6 mph80%29.72 "Hg12 mi
Weather by CustomWeather, © 2015

See weather overviewHow to use our weather pages